GFSNE_con_mucape_057.txt.gz
CAPE
2641 2433 1714 649 589 422 452 524 610 825 892 1881 450 1194 745 724 1015 1427 1915 1066 694 514 290 17 0 0 0 7 23 66 141 198 222 222 98 12 17 4
1651 3396 2939 1307 1228 872 743 667 638 601 625 590 616 1059 932 898 860 1196 1264 802 803 817 704 538 329 80 0 0 0 0 0 0 6 9 0 0 0 1
3005 2531 3519 3844 2112 1320 960 844 815 790 754 710 617 1360 2715 3289 2664 2422 1773 2260 1477 797 632 555 424 284 154 4 0 0 0 0 0 0 0 0 0 0
2926 3505 2553 2232 3997 3922 2319 3596 1923 2367 1172 2675 1751 1601 2871 2961 3191 3513 1987 1742 1883 1117 1011 696 404 348 211 69 4 4 0 0 0 0 0 0 0 0
2988 3319 3228 3529 4145 2836 3631 2216 1623 2341 2355 2163 2299 2148 2239 2116 2623 3450 3612 3134 2269 1608 1332 1154 1156 1406 1643 1645 1524 810 472 236 129 19 0 0 0 0
3163 3288 3382 3700 4176 4536 3838 4493 3716 3315 2543 2330 2352 2414 2464 2846 2405 2283 2596 2660 2687 2172 1941 1907 1847 1824 1809 1630 1658 1657 1634 1208 715 491 356 146 0 0
3274 3432 3307 3292 2612 3646 3240 4051 4127 3745 2712 2795 2570 2245 2041 2089 2778 2592 2717 3206 3627 3152 2858 3216 3195 3573 3367 2639 2551 2386 2126 2073 1789 1319 967 914 586 2
3691 3682 3738 2452 2243 2174 2393 2490 2491 3927 4722 3208 2608 2514 3618 3493 3140 2999 3386 3224 3534 3255 4407 4537 4313 4107 3960 3784 2961 2384 2123 1878 1703 1560 1332 902 785 820
3632 3798 3280 1881 2637 3722 2707 2350 2351 2273 2109 2966 3416 3548 3716 4121 4589 4651 3437 3933 4536 4266 3917 4054 3745 3868 3924 3145 2890 2497 2108 1874 1614 1423 1357 1149 693 664
3517 3678 3987 3719 3716 3463 3988 3768 3524 3696 3466 2639 2718 3308 3978 4226 4454 4089 4193 4191 4322 4111 4106 3886 3999 4011 4277 3995 3002 2215 1636 1603 1445 1399 1172 999 831 507
3123 3202 3577 4082 3479 2671 3323 3554 3901 4082 2310 1759 1939 2706 2929 2717 2090 2664 3022 3729 3764 3492 3876 4244 4050 3827 2980 2664 2488 1351 1249 1114 1115 989 905 463 394 364
3218 3586 2499 2288 2705 2757 3286 3714 3880 4056 3820 3370 3312 2713 2583 2764 3458 3488 3618 3491 3781 3740 3901 3760 3273 2599 2380 2757 2492 2783 2169 1380 1181 986 647 500 410 284
2125 1926 2239 1928 1893 1698 1822 3486 3530 3638 3208 3092 2920 3581 3847 4320 4166 3813 4192 4243 3863 3488 3410 3431 2549 2645 2185 1619 1720 1856 1707 1640 1808 1169 418 212 373 321
2264 1248 1736 1064 1231 1612 1696 1565 1578 1725 2161 2520 2987 3416 3837 4179 3922 3997 4337 4443 4501 4389 4195 4358 2597 1594 1523 1446 1223 1332 1128 909 1342 1271 704 235 206 220
2478 1588 1631 2267 2417 2262 2347 2498 2692 2557 2590 2981 3458 3707 3676 3816 3148 2933 4320 4540 4665 4779 3186 2501 1315 1349 828 846 600 225 32 3 34 40 69 18 22 201
2052 2002 2178 2254 2618 2871 3187 3138 3028 3063 3357 3658 3962 3701 3218 3338 3181 3178 3089 1249 732 931 1908 1794 1471 1211 271 33 0 1 0 0 0 0 0 0 0 13
2381 2685 2552 2589 2912 3296 3799 3877 4029 4042 3862 3691 3447 3092 3388 3121 3459 2321 1438 788 701 702 799 667 1806 348 0 0 0 0 0 0 0 0 0 0 0 0
2770 3015 3269 3384 3566 3612 3832 4008 4007 3781 4129 3256 3319 3448 3129 2646 2014 1346 746 641 634 828 706 513 311 128 6 0 0 0 0 0 0 0 0 0 0 0
3638 3643 3645 3885 3770 3868 3900 3787 3851 3736 3324 3426 3183 2770 2236 1988 1516 689 615 512 713 790 533 400 238 52 37 11 0 0 0 0 0 0 0 0 0 0
3855 3660 4302 4035 4460 4273 3840 3502 3119 2871 3271 2759 2402 2114 1600 1441 721 721 468 530 738 595 264 334 416 112 12 17 11 0 0 0 0 0 0 0 0 0
3445 3762 3695 3637 3336 3306 3084 3139 3014 2562 2260 2048 2310 1751 1495 606 575 416 304 103 111 185 178 314 208 1 9 69 12 2 0 0 0 0 0 0 4 5
3059 2780 2876 2968 2854 2969 3319 2836 2726 2389 2042 1960 1836 1594 681 225 313 286 240 182 174 188 103 106 123 31 17 13 9 3 0 0 0 0 0 2 0 6
2493 2568 2528 2543 2568 2154 2265 2269 2137 1833 2232 1338 1465 711 118 72 234 210 426 110 6 6 43 10 13 43 16 10 0 8 0 0 0 0 0 2 1 0

GFSNE_con_mucape_060.txt.gz
CAPE
3070 3469 3102 1999 1466 1142 1480 1513 1812 1357 1462 2241 1951 2038 1479 1708 1919 1096 1155 804 625 622 631 609 472 276 96 6 0 0 16 40 78 102 151 242 132 77
2911 3004 3198 2189 2121 2241 1766 1973 1950 1635 1409 1396 1950 2171 1723 1131 1749 2037 1900 1358 1033 819 778 757 770 604 428 460 478 420 430 195 14 0 0 0 0 7
3463 3570 3235 3060 3103 2994 2757 1960 1818 2187 1759 1583 2207 1840 2884 2909 2343 2276 2524 2128 1801 1480 1429 1385 1296 1216 1287 1300 1413 1536 1323 1084 850 461 83 0 0 1
3465 3228 3516 3302 3996 3608 3090 3100 3315 3556 2733 2294 2247 1777 1766 1937 2812 3230 2965 1938 1595 1748 1728 1728 1530 1593 1647 1800 1716 1661 1540 1638 1752 1477 829 560 189 1
3277 3414 3237 3513 3689 3664 3726 2929 2418 2672 2416 2319 2163 2843 2847 2705 2289 2853 3321 2828 2462 2137 1970 1797 1956 1711 1800 1867 1836 2443 2233 1895 1880 2037 1714 1266 933 565
3297 2949 3414 3592 3564 3932 3558 3471 3438 3442 3009 3009 2449 2251 2411 2577 3249 2806 2457 2478 2145 2900 2417 1923 2058 2769 3389 3308 3156 3073 2770 2469 2331 1830 1856 1655 1478 874
2903 3206 3151 3281 2944 3429 3376 3658 3649 3620 3324 3171 2954 2985 2472 2384 2492 2523 2868 2946 2735 2815 2660 3326 3550 3339 3365 3460 3113 2830 2849 2456 2279 2174 1877 1587 1387 1008
3020 2966 3480 2308 2108 2064 1998 2428 2583 3312 3154 3415 3349 3061 2766 2802 2936 2588 2704 2790 2625 2772 4110 3284 3352 3570 3479 3409 3258 3228 2805 2572 2411 1923 1573 2008 1835 995
3081 3004 3043 2476 2407 2986 2201 1750 1876 2089 2190 2396 2554 2610 2568 2499 2731 3242 3165 3221 3251 3070 3135 3504 3468 3632 3528 3587 3232 2282 1592 1382 1079 952 776 1009 1038 1070
2654 2885 3159 2883 2698 3179 3128 3134 2747 2552 2435 2279 2212 2241 2543 2833 3297 3367 3387 3406 2673 2966 3616 3456 3272 3415 3512 2579 2020 1910 1819 1573 1281 1199 1083 869 702 798
2080 2596 3255 3106 2706 2409 2207 2592 2907 3229 3155 2987 3069 3128 2962 2826 2883 3008 2456 2584 2934 3313 3671 3271 3333 3175 2478 1935 2166 1530 916 975 1154 1213 1099 990 887 777
2207 2449 2029 1797 2052 2733 2790 2899 2806 2755 2867 3028 3109 2762 2762 2665 2399 2678 3085 3563 3558 3422 3792 2985 2813 2248 2220 2294 885 1043 983 695 208 520 612 844 803 340
1954 2136 2369 2267 2120 1813 1844 2479 2766 2861 3061 3181 3056 2574 2503 3421 3775 4144 3916 3732 3733 3478 3589 3389 2554 2461 1824 935 1064 798 99 2 0 1 0 8 81 323
2303 2281 2077 1961 2263 2119 1926 1678 1665 2040 2121 2181 2200 2410 2886 3169 4064 4448 4342 3745 3483 3730 3659 4023 3407 1971 1108 586 359 106 0 0 0 0 0 0 0 3
2465 2259 1951 1618 1363 1221 1164 1542 1523 1479 1863 2316 2629 3007 3325 4180 3893 3361 3220 3192 3660 3631 3832 3227 1971 1324 661 387 74 0 0 0 0 0 0 0 0 0
2542 2248 2230 1876 1997 2289 2755 2668 2492 2584 2813 3142 3254 3466 4190 3713 3179 3204 3280 3564 1816 1428 1550 1984 1160 929 432 89 0 0 0 0 0 0 0 0 0 0
2586 2466 2490 2412 2271 2622 3304 3744 3251 3267 3240 3393 3600 4090 3671 3160 3234 3194 3512 1982 1589 1192 1001 1494 572 300 196 0 0 0 0 0 0 0 0 0 0 0
3048 2898 2723 2801 2819 2665 2795 3279 3866 3771 4057 4237 4227 3618 3237 3175 2843 2975 1968 1848 1315 985 974 1352 817 349 105 20 0 0 0 0 0 0 0 0 0 0
3341 3104 3054 3365 3340 3685 3882 4392 4610 4571 3935 3713 3920 3675 3822 3061 2375 1914 1814 1204 803 776 1386 835 820 458 234 38 0 0 0 0 0 0 0 0 0 0
3230 3630 3755 3758 4531 4331 4207 4261 4298 3704 3281 3146 3050 3003 2633 2263 1814 1492 1284 947 766 993 542 349 683 442 95 18 7 0 0 0 0 0 0 0 0 0
3169 3306 3820 4620 4601 4692 4276 3956 3480 3067 2929 2651 2327 2030 1656 1518 2026 1457 859 269 175 397 455 385 216 106 42 39 1 1 5 4 1 0 0 0 0 0
4345 4245 3949 3500 3332 3120 3048 2924 2869 2532 2270 2525 2088 1925 1633 1874 1476 1237 519 459 332 200 153 149 262 49 2 0 9 4 0 0 0 0 0 0 0 12
2908 3119 2981 2897 2666 2316 1871 2075 2045 1850 1677 1540 1500 1982 1348 1530 1177 703 200 295 357 93 29 11 181 146 19 2 0 0 0 0 0 0 0 0 0 0

GFSNE_con_mucape_063.txt.gz
CAPE
1786 1572 1808 1059 743 804 287 317 360 376 827 902 1088 1040 588 612 697 983 705 569 597 960 1241 1262 1304 1170 1170 1054 1047 1293 1346 1377 1259 1071 1051 529 359 718
1071 1832 1409 1229 879 1642 1395 644 800 588 483 581 518 977 1424 1044 1024 1041 698 818 1240 1379 1464 1491 1529 1511 1597 1611 1561 1630 1617 1589 1546 1644 1135 862 450 237
1374 1700 1735 1514 1113 1498 2423 2037 1396 813 756 676 1131 1395 1116 965 776 1133 1245 1243 1437 1592 1657 1561 1740 1981 1838 1600 1442 1828 2088 1806 1738 1778 1517 1192 1196 891
1677 1884 2055 1992 1736 1638 2030 1877 1821 1978 1755 1158 860 819 1607 2100 1963 1819 1888 2015 2021 1866 1676 2257 2238 2026 1638 1858 2573 3206 2940 2985 2894 1905 1129 1304 983 1078
1919 2227 2010 1936 2347 2560 2593 2287 2304 2084 2638 2393 2171 2247 2365 2007 1858 2057 2106 2103 2357 2487 2487 2150 1833 1947 3171 3118 3075 2917 2947 2791 2630 2530 2291 1925 1724 1141
2276 2066 2094 2142 1974 2118 2377 2516 2349 2333 2162 2135 2179 2180 2525 2463 2306 2132 2426 2424 2324 2197 1985 2032 2511 3247 2963 3119 3233 3232 3187 2997 2846 2667 2189 2363 2121 1839
1950 2007 2330 2169 2493 2617 2673 2741 2815 2805 2773 2765 2756 2928 3328 3018 2500 2392 2287 1692 1833 2299 2195 2581 3033 3061 3384 3445 3476 3370 3052 2288 1304 1252 1000 859 675 699
2206 2220 2203 2352 2315 2382 2489 2802 2922 2973 3035 3228 2944 2537 2412 2175 2050 2051 1846 2078 2419 2422 2950 2714 2834 3346 3374 3339 3571 2642 1548 1409 1086 1277 1016 832 819 912
2335 2218 2255 2217 2308 2364 2247 2106 1941 1786 1886 2067 2054 2010 2008 2031 2075 2162 2080 2343 2539 2516 3001 2933 3247 3196 2944 3179 2299 1565 831 576 921 958 990 1077 1016 952
2220 2399 2258 2165 2190 2124 2035 2133 2186 2087 1967 1892 1920 2158 2395 2462 2582 2317 2299 2602 2882 2941 3007 3261 3380 2961 2959 2152 1568 1012 688 677 579 284 7 58 371 483
1646 1778 2227 2381 2326 2309 2115 2095 2549 2903 3124 3175 3066 2858 2662 2519 2527 2447 2634 2588 2530 2970 3205 3430 2955 2713 2156 1759 1447 515 484 81 0 0 0 0 0 1
1357 1648 2066 2059 2072 2089 2147 1997 1937 1761 1590 1835 2034 2130 2374 2591 2729 2427 2109 2671 3069 3228 3220 3014 2858 2099 2187 1853 820 328 147 0 0 0 0 0 0 0
1325 1203 1322 1466 1502 1469 1682 1895 2245 2441 2538 2519 2522 2720 2832 2429 2121 2496 3140 3145 3543 3414 3272 3211 2962 2959 2170 1148 395 168 0 0 0 0 0 0 0 0
1440 1266 1171 1410 1602 1578 1523 1526 1501 1435 1680 2034 2324 2302 2182 2140 2404 2667 3776 3720 3594 3323 3040 2997 3221 3127 820 371 176 3 0 0 0 0 0 0 0 0
2057 1759 1622 1635 1655 1738 1843 1931 1891 1746 1582 1493 1448 1436 1974 2646 2779 3411 3547 3480 3134 3302 2960 3129 2115 808 417 236 92 0 0 0 0 0 0 0 0 0
2664 2294 1895 1800 1750 1691 1665 1668 1257 1173 1267 1286 1487 2232 2760 2936 3453 3582 3466 2932 3147 1929 1747 1128 678 456 348 207 1 0 0 0 0 0 0 0 0 0
2875 2720 2406 2122 1892 1828 1887 1847 2160 2272 2130 2146 2504 2864 3070 3472 3538 3256 2857 2945 2652 1780 1518 531 659 503 377 167 23 0 0 0 0 0 0 0 0 0
2614 2484 2355 2225 2103 2002 1899 1909 2478 2563 2676 2849 3066 3095 3233 3436 3339 3003 2738 2274 1710 1742 1085 394 756 509 374 213 37 0 0 0 0 0 0 0 0 0
2578 2135 2123 2384 2435 2065 1899 1817 1670 2881 3003 3212 3362 3621 3563 3320 2864 2510 1821 1614 1673 1110 426 607 619 512 365 277 20 0 0 0 0 0 0 0 0 0
2339 1910 2277 2599 2581 2434 2306 2527 2957 3255 3556 3632 3558 3301 3111 2822 2501 1876 1513 1488 1382 1032 259 361 403 243 119 63 0 0 0 0 0 0 0 0 0 0
2065 2299 2604 2546 2529 2935 3037 3089 3382 3428 3195 2951 2647 2566 2586 2153 1685 1288 1310 1348 1222 848 97 113 175 115 20 0 0 0 0 0 0 0 0 0 0 0
2074 2107 2085 2700 3155 3215 3150 2978 3033 2973 2747 2539 2181 2012 1769 1430 1308 1288 1224 1124 890 269 65 28 26 4 0 0 0 0 0 0 0 0 0 0 0 0
2025 1273 745 87 141 2059 2310 2324 2118 2273 2515 2422 1779 1564 1459 1289 1256 1228 783 654 802 181 84 11 0 0 17 0 0 0 0 0 0 0 0 0 0 0

GFSNE_con_mucape_069.txt.gz
CAPE
1120 1147 763 934 431 208 1229 248 173 183 209 654 542 491 802 918 703 798 1010 952 1340 1659 1744 1803 2001 2046 1999 1862 1542 1888 2949 2789 2750 2668 2573 2267 1853 962
1234 1273 1115 707 561 173 927 1405 801 440 388 322 519 572 902 931 965 1574 1521 1607 2007 1887 2144 1906 1604 1585 1656 2392 2907 2878 3085 3072 2985 2905 2789 2547 2264 1591
1098 1078 1122 899 1147 893 853 1180 1234 1406 1220 1049 955 1083 1339 1747 1702 1412 2201 2368 1830 1809 1736 1389 1469 2198 2482 2755 3109 3220 3235 2900 2635 1959 1281 1138 1400 2043
1199 1149 877 988 1261 1456 1423 1251 1450 1222 1256 1218 1311 1743 2048 1709 1486 2070 2514 2257 2563 1542 1402 1444 1724 2521 2678 2967 2999 3099 3017 2096 1716 1218 944 919 1064 950
1137 1446 1364 1123 1265 1576 1579 1617 1617 1923 1907 2038 2118 1842 1635 1642 2034 2415 2749 2588 1566 1598 1737 1579 2000 2614 2943 2901 2922 2892 2057 1412 1042 277 305 306 513 799
1380 1299 1300 1373 1459 1420 1364 1529 1864 1874 1701 1735 1742 1844 1985 2076 2253 2526 2287 1702 1664 1984 1616 1731 2310 2734 2988 2769 2583 1426 909 353 44 0 0 0 0 0
1562 1508 1437 1419 1530 1665 1665 1652 1395 1651 1886 1948 1988 2043 2132 2141 2190 2388 1997 1663 1972 1887 1696 1863 2453 2753 3003 2612 1699 983 435 0 0 0 0 0 0 0
1495 1461 1462 1459 1525 1640 1813 2160 2217 2237 2012 1945 2018 2058 2053 2112 2076 1886 1608 1809 2274 1982 1962 2096 2446 2763 2912 2075 1147 915 168 0 0 0 0 0 0 0
1138 1180 1240 1248 1330 1440 1562 1554 1727 1920 2008 2159 2158 2056 2052 1972 1778 1687 1801 2408 2386 1920 2013 2230 2332 2728 2504 1514 1188 804 134 0 0 0 0 0 0 0
1165 1165 1189 1193 1298 1503 1608 1664 1698 1723 1750 1876 1863 1876 1864 1941 2162 2219 2524 2546 1971 1899 2154 2719 2520 2794 2284 1202 1130 974 82 0 0 0 0 0 0 0
1137 1147 1213 1322 1411 1515 1650 1732 1680 1729 1763 1678 1634 1734 1828 2001 2324 2388 2451 1988 1779 2010 2104 2444 2744 2843 1845 1404 1248 1010 34 0 0 0 0 0 0 0
1231 1254 1274 1182 1268 1406 1485 1406 1380 1425 1578 1558 1527 1567 1646 1580 1549 1712 1851 1863 1919 2314 2240 2791 3004 2543 1916 1596 1382 548 1 0 0 0 0 0 0 0
959 913 974 1008 1147 1283 1313 1360 1380 1390 1411 1386 1338 1347 1464 1559 1699 1822 2068 2053 2381 2096 2442 3153 2865 2770 2249 1718 948 92 0 0 0 0 0 0 0 0
943 917 857 955 972 997 1084 1156 1286 1401 1432 1406 1387 1504 1670 1361 1314 1515 1759 1975 2013 2227 2802 3114 2838 2398 1860 1489 280 58 0 0 0 0 0 0 0 0
1113 1086 1178 1200 1198 1114 966 888 884 949 1021 1170 1381 1323 1057 957 1141 1280 1285 1316 2127 2610 3228 2844 2534 2041 1807 929 193 98 0 0 0 0 0 0 0 0
1235 1364 1492 1545 1582 1583 1531 1448 1354 1363 1375 1199 1059 1043 1188 1322 1056 1073 1197 1524 2491 3055 2948 2374 2255 1848 1328 842 161 109 1 0 0 0 0 0 0 0
1585 1620 1646 1684 1782 1835 1846 1861 1869 1849 1793 1533 1386 1460 1322 957 958 801 1321 2390 2798 2946 2571 2440 1891 1138 930 258 229 109 2 0 0 0 0 0 0 0
1550 1600 1512 1523 1546 1587 1641 1676 1789 1976 2058 1992 1672 1425 1349 1313 1153 1168 1759 2485 2790 3001 2546 2344 1607 1068 830 182 136 91 0 0 0 0 0 0 0 0
1922 1900 1806 1703 1641 1515 1524 1646 1858 1968 1967 1990 1990 1874 1819 1780 1580 1495 2223 2764 2932 2873 2431 1969 1123 935 723 222 86 31 0 0 0 0 0 0 0 0
2060 2032 1929 1945 1929 1904 1962 2159 2181 2170 2021 2144 2234 2131 2041 1676 1657 1594 2458 2843 2771 2456 2037 1155 1099 781 692 105 62 0 0 0 0 0 0 0 0 0
2281 2341 2322 2029 2140 2320 2539 2477 2376 2171 1855 1903 1723 1611 1710 1555 1384 1692 2048 2469 2262 1951 1311 975 933 664 454 53 3 0 0 0 0 0 0 0 0 0
2059 1863 2290 2156 2238 2389 2363 2097 1775 1658 1634 1495 1423 1254 1182 1023 1121 926 754 1180 1732 1717 1080 942 649 532 324 101 0 0 0 0 0 0 0 0 0 0
2002 1833 1819 1776 1938 1791 1470 1344 1266 1025 921 894 772 731 496 162 77 27 42 2 1016 1120 740 717 722 523 181 223 0 0 0 0 0 0 0 0 0 0

GFSNE_con_mucape_072.txt.gz
CAPE
1050 1023 929 990 658 238 827 923 281 531 477 493 793 603 868 1101 1227 1570 1419 1810 2281 1846 1707 1482 1209 1518 2292 2566 2702 2830 3045 3114 2942 2725 2420 2327 2326 2116
1031 1060 1009 873 670 439 788 1016 1236 976 746 503 666 855 1164 1572 1772 1705 1552 2291 2224 2374 1773 1442 1370 2099 2534 2798 3023 3115 3084 2868 2411 1904 1412 1030 1004 1129
1038 1011 1101 998 946 864 735 1101 1040 1100 1250 1280 1246 1294 1541 1944 2185 1879 2118 2478 2436 1622 1690 1568 1577 1999 2616 2932 2915 2956 2866 2468 1407 1077 654 315 485 827
1048 1068 1069 978 1051 1093 1296 1344 1293 1388 1419 1417 1625 1709 1758 1784 1852 2247 2292 2419 2029 1676 1950 1483 1645 2268 2775 2850 2682 2288 1436 808 362 1 0 0 0 71
1023 1063 1176 1228 1230 1322 1407 1458 1570 1675 1827 1761 1774 1698 1619 1761 2117 2290 2381 2498 1670 1795 1775 1579 2018 2587 2861 2727 2276 1211 662 211 0 0 0 0 0 0
1130 1214 1335 1258 1379 1472 1343 1549 1597 1748 1784 1694 1660 1806 1827 1910 1879 1967 2511 2394 1775 1860 1845 1771 2230 2654 2770 2687 1904 836 441 30 0 0 0 0 0 0
1263 1210 1242 1312 1308 1346 1558 1844 1613 1629 1701 1757 2048 1878 2161 2218 2440 2211 1898 1710 1911 2051 2077 2424 2442 2627 2735 2520 1640 901 543 57 0 0 0 0 0 0
1422 1368 1415 1336 1374 1384 1341 1358 1497 1982 2102 2092 2347 2086 2387 2025 2138 1897 1687 1862 1965 1943 2170 2497 2569 2499 2685 2429 1469 966 716 227 0 0 0 0 0 0
1448 1500 1305 1230 1102 1414 1166 1160 1206 1352 1444 2185 2223 2308 2306 2416 2101 2069 1883 2041 2033 2063 1952 2269 2450 2268 2442 2485 1312 955 828 398 0 0 0 0 0 0
1250 1220 1273 1345 1232 1273 1391 1488 1528 1416 1333 1357 1379 1750 2206 2241 2054 1977 1749 1667 1648 1868 1827 2416 2420 2286 2636 2381 1487 1011 946 455 0 0 0 0 0 0
1156 1216 1213 1211 1025 1015 1336 1545 1677 1699 1379 1442 1438 1515 1565 1487 1475 1532 1422 1383 1805 1847 1979 2193 2200 2669 2852 2113 1395 1161 1014 139 0 0 0 0 0 0
877 1009 849 972 961 986 1038 1473 1531 1606 1628 1656 1194 1210 1296 1321 1303 1241 1259 1453 1974 1890 2124 2141 3017 2602 2530 1828 1452 1198 956 19 0 0 0 0 0 0
449 575 1026 798 894 966 987 1250 1246 1381 1327 1268 1582 1454 1313 1271 1221 1245 1366 1323 1789 2011 2118 2468 2676 2379 2400 2672 1428 930 149 5 0 0 0 0 0 0
562 671 713 592 722 757 720 699 738 858 964 1345 1405 1252 1267 1195 1458 1559 1488 1017 1404 2204 2258 2227 2000 2529 2445 1799 1525 1071 132 32 0 0 0 0 0 0
644 504 402 508 657 693 680 666 746 754 762 772 856 1071 1170 1290 1412 1147 1195 1398 1327 1203 1189 1636 2368 2741 2497 1985 1288 1045 106 38 0 0 0 0 0 0
900 823 748 804 898 901 960 1116 1215 1230 1128 952 949 1048 1202 1199 1014 927 1125 1551 1393 1813 1554 2330 2833 2336 1893 1803 1192 815 132 88 0 0 0 0 0 0
940 935 930 897 940 988 1091 1273 1426 1493 1484 1462 1450 1475 1535 1501 1225 1188 1191 1242 1644 2030 1961 2581 2514 2277 2075 1728 876 758 149 106 0 0 0 0 0 0
1145 1227 1189 1087 1047 1026 1869 1276 1037 1144 1294 1326 1420 1600 1703 1766 1731 1373 1179 1386 1842 2026 2076 2462 2273 2223 1848 1623 931 526 134 69 0 0 0 0 0 0
1444 1542 1544 1467 1404 1234 1874 1793 1336 1008 975 1087 1270 1585 1746 1858 1896 1599 1374 1476 1791 2073 2104 2611 2639 2139 1876 1101 856 385 90 46 0 0 0 0 0 0
1552 1606 1648 1638 1648 1658 1964 1926 1463 1497 1388 1440 1732 1803 1862 1810 1774 1731 1717 1663 1607 1548 1900 2453 2200 2183 1799 1001 731 432 64 4 0 0 0 0 0 0
1787 1767 1704 1780 1736 1712 2012 1880 1601 1621 1835 2100 2124 2117 1959 1705 1837 1719 1715 1312 1363 1393 1688 1759 1836 1167 767 581 487 314 63 0 0 0 0 0 0 0
2038 2043 1939 1946 1906 1856 1918 2200 1879 1949 2163 2186 2006 1906 1517 1405 1395 1431 1515 1309 1225 1149 1036 890 918 953 705 709 476 172 148 0 0 0 0 0 0 0
2138 2062 2065 2013 1863 1718 1516 1765 1728 1914 2040 2056 1665 1565 1468 1316 1339 938 605 382 211 394 484 315 237 640 642 653 549 226 149 76 0 0 0 0 0 0

GFSNE_con_mucape_075.txt.gz
CAPE
2176 2189 2086 1866 1717 1404 1515 1539 1297 1016 972 1173 1133 1660 2004 2193 2315 2683 2687 2195 2203 2281 1802 1790 1345 1869 2231 2646 2991 3042 3051 2925 2662 1963 1466 1198 977 1010
1897 2322 2322 1764 1806 1585 1337 1449 1532 1677 1255 1494 1617 1983 2413 2551 2160 2849 2793 2647 2548 2106 1834 1574 1547 1841 2325 2811 2871 2840 2737 2408 1439 682 155 46 126 297
2202 2305 2313 2471 1711 1643 1555 1699 1904 1731 1503 1192 1975 2193 2789 3099 2953 3144 2520 2447 2284 1889 1753 1470 1695 2141 2556 2915 2692 2227 1577 576 75 0 0 0 0 0
2054 2266 2136 1915 2356 2361 2158 2333 2064 2343 2178 2246 2463 2306 2692 2888 3187 3363 2835 2190 2964 1861 1800 1588 1833 2439 2758 2851 2445 1960 669 170 0 0 0 0 0 0
1982 2112 2141 2305 2488 2083 2454 2295 2180 2460 2590 2613 2474 2412 2538 2590 2768 2803 2916 3023 2394 1765 1915 1818 2078 2389 2658 2730 2321 1751 664 328 75 0 0 0 0 0
2291 2167 2152 2227 2365 2644 2668 2733 2581 2644 2501 2713 2225 2155 2349 2467 2657 2120 2088 2128 2549 2423 2224 2049 2013 2620 2467 2661 2404 1629 1118 618 353 0 0 0 0 0
2348 2334 2225 2010 1748 1887 2005 2356 2541 2544 2305 2349 2206 2048 1953 1850 2052 1951 1914 2188 2643 2618 2612 1881 2131 3048 2920 2431 2573 1602 846 697 588 5 0 0 0 0
2498 2496 2426 1519 1329 1132 1159 1236 1463 2533 2438 2058 1583 1819 2778 2447 1766 1973 1945 2114 1883 1768 2634 2044 2251 3121 3252 2027 2510 1792 877 734 656 3 0 0 0 0
2521 2544 2393 1860 1818 2327 1700 1225 1158 1093 1154 2404 2454 2350 2727 2372 2588 2790 2452 2415 2359 1947 2572 2180 2262 3043 3012 2044 2543 1863 917 760 673 0 0 0 0 0
2414 2356 2566 2639 2397 2229 2352 2256 2275 2255 1814 1249 1655 2149 2439 2567 2882 2956 2788 2715 2388 2128 2716 2418 2186 2995 2990 2359 2390 1726 1190 893 536 0 0 0 0 0
2382 2290 2570 2505 2230 1599 1972 2161 2283 2265 1549 1382 1267 1446 1487 1317 1312 1901 2012 1886 1555 1327 1719 2313 2363 3038 3368 2847 1607 1385 1287 860 93 0 0 0 0 0
1582 2053 1307 1505 1595 1374 1424 1893 2236 2098 1707 1459 1650 1348 1153 1004 961 1085 1896 1933 1602 1434 1573 2229 1908 2599 2731 2790 1797 1985 1145 1036 19 0 0 0 0 0
1012 1007 940 688 834 929 907 2065 2216 1989 1300 1657 1499 1283 1532 1961 2112 1551 1652 1912 1711 1579 1451 2514 2073 2463 2966 3016 2469 1499 895 1018 195 0 0 0 0 0
1331 1112 1194 598 537 465 529 548 985 1150 1295 1154 961 1030 1124 1266 1450 1740 2433 2174 1998 2175 2183 2602 2343 2271 2811 3083 2770 1436 924 908 154 0 0 0 0 0
1001 1073 866 730 542 456 635 485 508 491 915 1032 1153 1211 1158 1116 1779 1927 2134 2300 2320 2253 2037 2426 2675 2582 2736 2950 2742 1352 1037 817 98 0 0 0 0 0
1075 999 975 896 719 638 558 492 480 838 973 1120 1266 1284 1300 1335 1470 1717 1736 1686 1723 1939 2196 2226 2229 2187 1934 2305 2213 1368 1141 635 187 0 0 0 0 0
1106 1046 968 1017 1182 1223 1120 1339 1331 1062 1023 1221 1492 1499 1474 1481 1573 1659 1736 1733 1800 1768 1812 1492 810 1513 2218 2016 1651 1320 1333 693 272 0 0 0 0 0
1114 1079 1378 1471 1434 1274 1201 1418 1288 1102 1510 1447 1456 1418 1497 1501 1545 1663 1769 1958 1881 1815 1905 1963 1092 1770 2027 1678 1565 1257 1077 533 299 0 0 0 0 0
1327 1408 1297 1142 1149 1136 1386 1522 1458 1355 1531 1767 1445 1414 1414 1482 1608 1718 1856 2065 2054 1952 1991 2025 1251 1236 1666 1710 1130 961 931 434 243 48 0 0 0 0
1286 1287 1456 1371 1491 1683 1673 1831 1977 1520 1444 1873 1737 1462 1498 1553 1640 1816 1906 2093 2133 2074 2193 2450 1589 1021 1944 2345 1516 756 539 347 161 74 0 0 0 0
1442 1559 1604 1770 1760 1927 2191 2227 2004 1757 1600 1933 1977 2003 1842 1882 2000 2124 2388 1782 1788 2413 2128 1779 1649 984 1903 1676 1309 871 292 212 85 52 6 0 0 0
2050 1649 1836 2195 2166 2016 2174 2305 2439 2275 1612 1734 2112 2300 1831 1902 2019 1954 1879 1774 1286 1318 1369 2027 1178 989 1685 1419 1122 579 276 207 65 33 15 15 0 0
2446 2348 2413 2216 2169 2147 2128 2304 1878 1938 1707 1495 1800 1851 1946 2398 1931 1676 1505 1293 1129 1241 1114 1003 914 990 991 828 748 429 259 199 99 29 41 32 0 0

GFSNE_con_mucape_078.txt.gz
CAPE
1763 1622 1634 1205 1534 1554 1561 1454 1432 1099 1015 1883 1214 1721 1912 1966 2128 2554 2648 2026 2481 2251 1729 1481 1535 1732 1991 2474 2839 2606 2267 1784 934 141 0 0 0 11
1652 1793 2199 1270 1543 1610 1476 1446 1491 1445 1241 1081 1481 1858 2746 2712 2181 2796 2648 1963 2248 1906 1715 1411 1626 1964 2399 2711 2710 2211 1615 341 0 0 0 0 0 1
2129 2180 2439 2270 1784 1230 1389 1371 1474 1587 1529 1071 1360 1590 2753 3094 3035 3228 2689 2374 1444 1689 1642 1603 1695 2062 2600 2716 2506 1908 1630 270 93 1 0 0 0 0
2106 2298 2277 1799 2397 2246 1714 2038 2256 1851 1824 2123 2353 1695 2294 2674 2854 3275 2451 2064 2338 1665 1412 1803 1844 2133 2483 2608 2426 1966 1539 1288 417 170 0 0 0 0
2030 2336 2164 2168 2358 1707 2038 1706 1784 2010 2003 1794 1721 1476 1841 2318 2645 3142 2566 2548 1621 1277 1133 1605 1884 2326 2430 2441 2444 2174 1478 772 587 405 0 0 0 0
2556 2584 2461 2028 2217 2657 2690 2752 2670 2512 2451 1920 1707 1654 1711 2015 2366 1785 1298 1197 1468 1626 1505 1339 1230 2178 2626 2713 2172 2299 1633 833 586 528 0 0 0 0
2645 2881 2699 2276 1562 1750 1908 3297 3140 2591 1960 1619 1594 1625 1504 1441 2242 1277 1240 1176 1682 1371 1720 1625 1162 1485 2295 2881 1766 2226 1749 778 620 460 0 0 0 0
2846 2710 2816 1979 1797 1589 1478 1298 1191 2485 2457 1458 905 1103 2587 2097 1365 1172 1208 1170 1152 928 1605 1100 1168 1210 2570 3269 1636 2158 1794 941 703 221 0 0 0 0
2591 2520 2251 1765 2227 2503 1731 1216 1145 1069 1112 2547 2549 2507 2785 2380 2927 2513 3255 2171 2058 1452 1704 1432 1430 1413 2306 2614 1747 1930 1358 1046 787 38 0 0 0 0
2546 2458 2841 2943 2154 1970 2364 2340 2574 2493 2101 1630 1786 2127 2629 2476 2898 3027 3078 3046 2594 1928 2483 1316 1346 1213 2238 2787 2535 1414 1317 927 877 241 0 0 0 0
2210 2732 2994 3265 2457 1825 2326 2825 2685 2561 1226 1851 1730 1567 1409 1419 1422 1730 1475 1260 812 578 716 671 854 1163 1727 2226 2460 1986 1320 1041 761 709 0 0 0 0
1922 2599 1611 1824 1912 1750 2445 2882 2986 2624 1323 1241 1589 1181 1149 1220 940 1265 1830 1580 968 648 762 986 745 767 1317 1922 2828 1926 1482 1192 688 732 0 0 0 0
1147 1217 1270 839 946 943 1166 2911 2400 2065 1159 977 843 854 920 996 1703 1963 2196 1950 1165 643 390 1241 1039 1020 1280 1721 2522 3608 2094 1284 644 650 0 0 0 0
1518 1310 1623 1145 945 735 636 523 1003 965 644 138 88 139 259 369 325 983 3477 3207 2328 3307 2999 3602 1786 993 1306 1574 1751 2707 1886 1109 603 654 0 0 0 0
1356 1311 1252 1225 1158 1018 800 575 358 519 686 657 490 427 337 314 1420 1880 3273 3945 3812 3361 2777 3001 2775 2847 2256 2046 1886 2209 2562 1621 809 694 254 0 0 0
983 1033 1004 1021 1073 1140 995 765 464 761 844 927 754 492 584 563 638 815 940 980 1363 1662 3417 3281 3833 3519 2568 2237 2233 2530 2442 1843 863 681 391 0 0 0
937 1068 1192 1215 1376 1602 1673 1577 1553 1243 1047 1120 1144 1122 1113 1100 1081 1034 892 902 994 1097 1185 1736 3379 3303 2374 2970 2508 2810 2319 2048 1403 623 307 59 0 0
996 1356 1737 1844 1904 1948 2036 2030 1928 1486 1696 1470 1340 1260 1186 1184 1168 1086 994 940 1123 1316 1417 1360 1875 2161 1474 1991 2058 2759 2246 1855 1534 481 251 97 0 0
1148 1680 1903 1949 2197 2345 2366 2130 2111 2096 2692 2156 2109 1836 1491 1288 1118 1053 963 1231 1427 1493 1615 1790 1720 2376 1947 1501 1246 1236 2316 1902 1124 554 375 140 29 0
1032 1569 1881 2149 2199 1911 1737 1950 2022 2044 2376 2603 2126 2026 2047 1575 1301 1247 1259 1593 1547 1854 1953 2114 2013 2203 2597 1740 1039 1577 1133 1731 1051 477 326 113 27 0
792 1221 1786 1897 2406 2487 2617 2423 2907 2782 2961 2876 2450 2418 2485 2010 1659 1514 1437 1136 1393 2098 2386 2682 2471 1932 2853 2497 1678 2025 1234 1150 770 614 299 86 40 3
1588 1634 1686 1932 2501 2748 2787 2746 3001 2690 2716 2644 2791 2593 2497 2491 2637 2242 2220 2188 2804 2639 2514 2977 2418 2110 1515 1742 1892 2062 1071 1073 1071 787 228 80 6 14
963 1742 2334 2617 2563 2863 3403 3448 2752 2934 2597 2493 2656 2661 2546 1995 1926 2227 2404 2360 2174 2244 2412 2223 1291 1026 1104 1514 1543 865 957 1008 1199 561 267 90 9 1

GFSNE_con_mucape_084.txt.gz
CAPE
3014 2984 3147 2331 1859 2057 1741 1857 2121 2296 2246 2596 2174 2997 3088 2945 2590 2850 3493 2974 2468 2147 2098 1493 1083 1470 2085 2469 2387 1866 1497 939 416 363 106 0 0 0
2479 2892 3095 2200 2208 1747 1020 2242 2584 2338 2132 2134 2041 3528 3535 3044 2811 3303 3638 2998 2844 2541 1712 1485 1099 1468 1995 2294 2350 2102 1619 1260 579 497 283 0 0 0
2693 2629 2765 3302 2676 2471 2278 2379 2006 2382 2415 2266 2710 2943 2820 3454 3288 3885 3863 3629 2886 1863 1602 1407 1184 1365 1822 2179 2525 2143 1819 1364 633 477 159 0 0 0
2685 2178 2398 2380 3340 3182 2723 2600 2839 2847 2697 2567 2465 2091 2176 2086 4541 4099 4156 2905 2591 1976 1443 1298 1125 1234 1635 1993 2435 2027 1926 1494 962 534 28 0 0 0
2693 2660 2828 3115 3178 2472 3523 3000 2438 2539 2542 2609 2083 2703 2166 1868 2296 3292 4130 3863 3628 1026 854 918 821 1105 1373 1775 2294 2067 2057 1589 989 883 5 0 0 0
3001 2990 3222 3148 3150 3197 2980 2994 2863 2898 2430 2469 1884 1620 1587 1829 2850 3040 2758 1764 1655 1649 985 862 812 903 1121 1415 1998 2388 1972 1588 1074 777 536 0 0 0
2868 2903 3123 3087 2522 2981 2617 2740 2672 2716 2579 2189 1809 1791 1845 2736 2190 2064 1617 2284 1510 1587 1273 1350 913 485 675 1138 1565 2302 1929 1662 1151 852 544 0 0 0
2534 3019 3229 2577 1956 1736 1537 1203 1124 2826 2962 3256 2588 1718 1813 2229 2496 2682 2360 1647 1455 2071 1781 1321 984 662 1338 857 912 1941 1783 1906 1779 1110 538 58 0 0
2971 2950 2935 1846 1567 2672 1708 1555 1353 985 784 1101 1487 2001 2391 2387 3004 3240 2972 2814 2565 1861 1934 1535 1683 1766 1652 659 987 1712 1806 2064 1691 1469 1022 235 0 0
2218 2712 2897 2334 2468 2651 3045 2912 2108 1828 1566 1117 748 754 910 1236 1965 2036 2020 2104 2652 2849 2637 2295 2167 2083 1927 608 874 1307 1703 2091 1648 1626 1272 357 0 0
1477 1969 2129 2140 2812 2438 1611 2302 2787 3088 2603 2166 1969 1516 1075 791 828 1217 1325 1065 769 513 726 570 366 812 1265 697 333 606 1276 1960 1644 1512 1336 803 25 0
1788 1709 1055 1090 1666 1306 1298 2430 2005 1742 1832 2067 1887 1357 1540 1419 1240 1154 1097 1330 1078 869 577 607 705 538 696 1573 485 262 1078 1815 1706 1595 1211 1143 270 0
1913 1786 1792 1472 1110 931 1055 1116 1456 1871 1894 1828 1964 1788 1496 1619 1600 1308 1113 1209 1055 877 773 684 467 1930 1724 1159 1254 489 564 1095 1677 1824 1232 1239 699 63
1769 1923 1889 1522 1239 1162 1133 869 720 755 1323 1572 1685 1518 1243 928 706 544 1508 1372 1125 891 918 1573 2064 1849 1648 1318 1223 1049 567 635 2246 1885 1297 1130 1123 938
801 1031 1121 1429 1223 1102 1085 1003 885 737 672 657 822 959 1088 1027 988 629 268 1935 1829 1805 1710 1832 1709 2055 2023 1780 1552 1556 1178 1221 1947 1674 1229 1297 1102 903
702 537 764 837 990 1005 923 894 995 1055 976 846 802 832 994 1046 1026 922 515 135 249 2209 2663 2482 2833 2472 2136 2148 1982 1842 1628 1620 2131 1548 1457 1191 1009 899
741 491 512 582 1603 1897 1831 1464 1557 1080 1108 1102 1029 1133 1167 1093 1041 795 545 378 623 581 488 1988 2955 2780 2437 2457 2405 2199 1961 2020 1939 1545 1350 868 860 807
46 175 195 475 480 466 1227 1428 1638 1469 1613 1383 1276 1193 1084 1053 1013 1118 1362 813 619 690 636 666 1529 2703 2835 2943 2874 2432 2331 2149 1814 1751 1482 1043 765 702
0 24 11 3 57 350 541 329 261 1236 1480 1850 1741 1771 1440 1321 901 850 845 878 1195 1333 1135 1260 1581 1499 961 1144 1993 2658 2016 1705 1905 1851 1373 1074 767 651
0 0 3 19 47 569 1222 801 512 868 1049 1434 1417 1672 1571 1598 1505 1567 1500 1186 1010 858 833 1775 1210 819 705 822 995 1160 1955 1835 1484 1621 1405 1087 972 852
0 89 81 147 301 908 1220 1185 1587 1233 954 252 1395 1999 2037 1797 1829 1776 1777 1475 1333 1222 1282 1092 907 1195 2354 2289 1798 1296 1427 1231 1134 1497 1388 1038 915 792
18 66 178 240 483 765 392 262 268 1104 1274 1282 1209 1302 1743 1812 1988 1770 1680 1680 1451 1401 1322 1558 1887 1962 1854 1533 1244 1112 1075 1051 982 894 824 971 830 747
0 0 0 97 343 621 630 553 750 951 983 1107 1185 1246 1552 1405 1581 1693 1678 1653 1737 1661 1442 1393 1266 1311 1248 1424 1197 1124 1373 1473 1229 1037 776 729 671 730

GFSNE_con_mucape_087.txt.gz
CAPE
1309 1433 1290 1434 1182 1310 1600 592 1034 853 1211 1279 1513 2119 2063 2266 2151 2125 2631 2842 2506 2606 2615 2026 1509 1043 1692 2188 2286 2016 1547 1246 632 494 424 0 0 0
1761 1321 1477 1634 1388 1703 1668 1768 1658 1259 932 1192 1526 2688 2132 1906 2032 1945 2674 2573 2555 2744 2465 1613 1373 1035 1395 1999 2283 2022 1751 1326 978 508 412 0 0 0
1078 1508 1108 1731 1079 1588 1730 1483 1349 1827 1441 1512 2047 1770 1219 1151 1658 1667 2433 2725 2476 2386 2108 1885 1279 979 1106 1698 2055 2092 2065 1418 993 911 356 0 0 0
1180 1671 1272 1450 1580 1832 1718 1422 1747 1588 2019 1496 1392 1448 1782 1956 1636 1793 2818 2810 2747 2652 2456 1448 1089 939 891 1369 1784 2157 2172 1523 1037 931 708 0 0 0
1215 1416 1647 1393 1632 1720 1177 1788 1789 1498 2029 1907 1679 1759 1699 1224 1030 1409 1751 2423 1840 1376 816 847 665 747 709 943 1411 1941 2158 1727 1587 1176 682 202 0 0
1620 1933 1858 1305 1337 1541 1532 1276 1484 1632 1679 1490 1439 1476 1342 1350 1516 1893 1538 1561 1391 1111 621 1441 987 772 543 659 1035 1457 1987 1769 1741 1324 946 512 0 0
1864 1698 2053 2231 2286 2044 1825 1557 1486 1490 1572 1736 1951 2081 2097 1760 1467 1948 1584 1715 1366 877 1635 1408 827 830 778 636 969 913 1670 1707 1759 1442 1224 833 0 0
1651 1630 1958 2113 2393 2326 1604 1897 1750 1787 1773 1773 1798 2039 1982 1917 2042 1902 2128 1580 1262 1472 1760 1151 1488 1483 1432 1370 1313 695 973 1611 1777 1535 1347 953 107 0
2016 1944 1912 1632 1983 2085 1861 1546 1461 1226 1200 1047 706 594 776 801 1119 1295 1093 1374 1384 1225 1504 1816 1734 1876 1519 1522 1422 774 743 1431 1721 1579 1352 1115 706 0
1240 1873 2027 1877 1956 1793 1779 2100 2089 1866 1746 1718 1548 1364 1301 1185 921 599 716 1188 1202 1537 2051 1704 850 1406 833 947 1066 510 638 1155 1524 1599 1365 1164 833 199
1261 1184 1279 1518 1884 2108 2124 2181 2161 2086 2323 2277 2160 2243 2147 1842 1359 1188 1149 1308 909 686 628 521 362 268 190 604 406 250 509 796 1114 1609 1443 1227 943 469
1548 1535 1441 1216 1069 1096 1179 1177 980 1059 1462 1711 1730 1494 1831 1915 1663 1580 1375 1086 892 770 541 506 451 196 383 397 629 428 263 227 508 1529 1437 1377 933 883
1278 1307 1379 1453 1420 1346 1231 1115 969 875 823 798 1210 1410 1406 1306 1242 1210 1093 842 724 780 684 433 381 345 779 841 810 526 629 488 305 695 1120 1576 1039 873
733 941 1006 1109 1241 1215 1319 1243 1123 1074 1083 1071 968 792 1092 1244 1218 1154 1054 1023 853 686 576 429 439 520 439 609 875 850 924 864 765 596 1121 1894 1243 966
470 613 643 631 674 850 941 1182 1163 1038 967 926 936 800 698 617 745 851 872 817 735 833 798 752 614 694 888 829 812 1127 1233 1277 1433 1387 1136 1683 1297 1069
290 468 487 458 550 460 433 721 856 881 832 801 789 928 969 918 878 840 810 794 733 681 645 962 909 965 1012 1062 1310 1303 1439 1453 1244 1139 1084 1345 1279 994
81 64 162 199 212 143 306 1199 1473 1536 1446 1265 1064 938 861 876 917 923 912 940 801 642 446 388 1693 1648 1674 1601 1404 1547 1667 1808 1798 1596 1533 1416 1213 1010
0 0 0 0 0 0 2 49 337 799 1000 1158 1271 1274 1112 1175 1084 1012 1061 998 807 652 600 488 287 1910 2121 2064 1951 1594 1617 1923 1733 1487 1459 1501 1399 1181
0 0 0 0 0 0 0 0 89 199 200 228 531 730 971 1062 1115 1030 913 850 765 744 757 735 713 490 539 567 945 2179 1639 1497 1501 1599 1426 1231 1370 1316
0 0 0 0 0 0 0 0 167 596 738 740 380 511 376 393 529 575 555 720 856 816 864 707 743 863 847 708 604 530 1986 1938 1662 1536 1183 907 1084 1195
0 0 0 1 10 21 20 62 196 493 417 539 444 111 74 51 34 39 55 506 807 949 967 870 862 859 828 681 768 735 866 1022 1488 1248 1128 957 1057 1024
0 0 0 0 0 0 15 24 44 64 179 221 278 316 228 40 2 2 496 659 592 598 722 795 834 1003 931 843 930 958 978 983 898 1049 960 869 839 770
0 0 0 0 0 2 0 8 3 0 0 65 52 128 395 518 437 315 400 388 492 600 679 690 776 806 808 883 871 797 767 860 839 872 827 813 810 637